Location: Ash Observatory
(39.7321°N, 75.2004°W)
Time: 06:46:31
(UTC-04:00)

ISS - Pass Details

Date: 24 May 2019
Orbit: 408 x 418 km, 51.6° (Epoch: 17 June)

Event Time Altitude Azimuth Distance (km) Brightness Sun altitude
Rises 22:48:37 0° 308° (NW) 2,357 1.3 -22.3°
Reaches altitude 10° 22:52:04 10° 346° (NNW) 1,497 0.0 -22.7°
Maximum altitude 22:53:07 11° 4° (N) 1,433 -0.4 -22.8°
Drops below altitude 10° 22:54:10 10° 22° (NNE) 1,499 -0.5 -22.9°
Enters shadow 22:56:33 - 52° (NE) 2,028 -0.2 -23.1°
